COSMOS 1275 DEB, 19027

Orbit data source: Space-Track

COSMOS 1275 DEB, 19027 is space debris in LEO originally from a launch on Thu, 04 Jun 1981 UTC launched from the Plesetsk Missile And Space Complex (PKMTR). Debris objects in space refer to the collection of defunct objects orbiting the Earth. Examples of debris include non-operational satellites, rocket bodies, and fragments generated from explosions, collisions, or faulty payload assembly.

Loading next visibility...
Identifier
19027, 1981-053ME
Orbit
LEO
Country
Flag of CISCIS
Related business
Manufacturer
Unknown
Mission
Spacecraft
Bus & Motor
Unknown
Mass
Unknown
Launch date (UTC)
1981-06-04 (44 years ago)
Launch vehicle
Unknown
Launch site
Plesetsk Missile And Space Complex (PKMTR)
Object type
Payload
Rocket body
Debris
Shape & HBR
Unknown shape, 0.1 m
Radar Cross Section
Small (<0.1 m²)

Expand to show TLE details & history
Last TLE update: 3 days ago

TLE from 3 days ago
0 COSMOS 1275 DEB
1 19027U 81053ME  25288.36327363  .00007727  00000-0  37921-2 0  9991
2 19027  82.9986  61.0560 0066020 166.7412 223.2412 14.16491570 47142
Epoch: 2025-10-15T08:43Z
TLE epoch observation values (Epoch: 2025-10-15T08:43:06.841Z)
Latitude
29.27336°
Longitude
-89.93421°
Altitude
875.777 km
Speed
7.399 km/s
True Right ascension
04h 19m 55s
True Declination
29° 07' 45"
Sunlit
Object was in full shadow at epoch
Visualization orbit readout
Latitude
Unknown
Longitude
Unknown
Altitude
Unknown
Speed
Unknown
Apparent Right ascension
Unknown
Apparent Declination
Unknown
Sunlit
N/A
Visualization observer readout
Local Sidereal Time
08:15:39
Azimuth
Unknown
Elevation
Unknown
Doppler factor
Unknown
Orbital elements
Apogee altitude
881.948 km
Perigee altitude
786.715 km
Semi-major axis
7,212.469 km
Eccentricity
0.0066
Inclination
82.9986°
RAAN
61.056°
Arg. of periapsis
166.7412°
True anomaly
222.72603°
Mean anomaly
223.2412°
Eccentric anomaly
222.9833°
Mean motion
3.54338 °/min
Orbital period
101.6 mins
BSTAR
0.0037921
Loading maneuver chart data...
Computing Atmospheric mass density...

Documentation

Showing up to 5 results
|